Tracking 28790 objects as of 19-Apr-2024
HD Live streaming from Space Station
objects crossing your sky now

SL-16 DEB

Track SL-16 DEB now!
10-day predictions


NORAD ID: 27007
Int'l Code: 2001-056G
Perigee: 973.0 km
Apogee: 990.0 km
Inclination: 99.4 °
Period: 104.6 minutes
Semi major axis: 7352 km
RCS: 0.0547 m2 (small)
Launch date: December 10, 2001
Source: Commonwealth of Independent States (former USSR) (CIS)
Launch site: TYURATAM MISSILE AND SPACE COMPLEX (TTMTR)

Note: This is SATELLITE DEBRIS
Your satellite tracking list
Your tracking list is empty




NASA's NSSDC Master Catalog

Two Line Element Set (TLE):
1 27007U 01056G   24108.32274841  .00002389  00000-0  24616-2 0  9997
2 27007  99.4190 254.3938 0011536 223.1624 136.8623 13.77043370119768
Source of the keplerian elements: AFSPC